UO-11
1 14781U 84021B 11201.74061837 .00000391 00000-0 58666-4 0 06127
2 14781 098.0036 258.3427 0009934 035.2596 324.9271 14.80001938470750
FO-29
1 24278U 96046B 11202.44310118 -.00000024 00000-0 98858-5 0 6218
2 24278 098.5511 341.9584 0350827 168.3240 192.6306 13.52963891737097
SO-33
1 25509U 98061B 11201.85068753 .00000058 00000-0 -19052-5 0 146
2 25509 031.4328 053.9125 0353434 176.0509 184.3064 14.28430262665093
RS-22
1 27939U 03042A 11202.74749848 .00000142 00000-0 35873-4 0 4639
2 27939 097.8430 055.0881 0012397 233.7208 126.2853 14.63612520417398
VO-52
1 28650U 05017B 11202.66179723 .00000152 00000-0 25341-4 0 8515
2 28650 097.6393 244.2472 0027944 050.3080 310.0590 14.82116807335857
SO-67
1 35870U 09049F 11202.89402542 .00001442 00000-0 68240-4 0 496
2 35870 097.2783 245.0962 0000573 251.9462 212.0957 15.20887611102214
HO-68
1 36122U 09072B 11202.74625606 -.00000044 00000-0 00000 0 0 5763
2 36122 100.4134 263.0313 0007879 144.4933 215.6710 13.16287198 76782
AO-16
1 20439U 90005D 11201.98185478 .00000010 00000-0 19266-4 0 02528
2 20439 098.3870 150.4740 0011932 064.1392 296.1016 14.31929152122453
LO-19
1 20442U 90005G 11201.91631519 .00000066 00000-0 39916-4 0 01666
2 20442 098.3494 154.6327 0012813 058.7396 301.5037 14.32154587122624
AO-27
1 22825U 93061C 11201.89117452 .00000142 00000-0 72688-4 0 8700
2 22825 098.5334 145.6530 0008339 170.6796 189.4536 14.29355400929005
IO-26
1 22826U 93061D 11201.88444149 .00000023 00000-0 25722-4 0 06158
2 22826 098.5257 146.1096 0008830 164.6703 195.4748 14.29617805929125
GO-32
1 25397U 98043D 11201.51732011 .00000057 00000-0 43096-4 0 05359
2 25397 098.3270 192.2990 0001540 138.8388 221.2916 14.23213598676705
NO-44
1 26931U 01043C 11202.59999375 -.00000085 00000-0 -85840-6 0 8053
2 26931 067.0512 254.8551 0006269 255.0661 104.9758 14.29668307511841
SO-50
1 27607U 02058C 11202.51561788 .00000181 00000-0 49596-4 0 5201
2 27607 064.5563 223.3570 0075697 313.8996 045.5873 14.71774417461149
CO-55
1 27844U 03031E 11201.55670536 .00000099 00000-0 65943-4 0 1579
2 27844 098.7059 209.7722 0010629 099.9344 260.3057 14.20826148417652
CO-57
1 27848U 03031J 11201.99833270 .00000062 00000-0 48854-4 0 1085
2 27848 098.7115 209.4076 0010745 103.0370 257.2032 14.20604031417667
AO-51
1 28375U 04025K 11201.86257070 .00000048 00000-0 27360-4 0 250
2 28375 098.1005 178.5406 0084144 328.8419 030.7794 14.40768259370913
CP3
1 31129U 07012N 11202.73096943 .00000214 00000-0 59021-4 0 9227
2 31129 097.8971 224.9462 0103398 074.1516 287.0972 14.52519599225853
CO-65
1 32785U 08021C 11202.30883948 .00000378 00000-0 54103-4 0 485
2 32785 097.8478 265.5477 0016063 066.8022 293.4860 14.82053087174592
PRISM
1 33493U 09002B 11202.86955367 .00000804 00000-0 10875-3 0 7914
2 33493 098.1284 331.9941 0018456 290.8289 069.0968 14.81790537134650
SOHLA-1
1 33496U 09002E 11202.50128889 .00000199 00000-0 41824-4 0 4697
2 33496 098.0837 311.9916 0007220 022.5100 337.6414 14.69635874133528
TISAT-1
1 36799U 10035E 11202.67070461 .00000614 00000-0 86902-4 0 643
2 36799 098.0995 271.2618 0015691 160.9481 199.2323 14.80624088 55419
STUDSAT
1 36801U 10035G 11201.79749037 .00001686 00000-0 22561-3 0 2148
2 36801 098.1056 270.2673 0013683 152.3731 207.8209 14.80781048 55277
RAX
1 37223U 0 11152.36844328 .00000635 00000-0 96781-4 0 01733
2 37223 071.9713 073.6151 0021634 311.5989 048.3343 14.77415682028546
OOREOS
1 37224U 10062C 11153.29456974 .00000492 00000-0 77478-4 0 01796
2 37224 071.9726 071.8135 0020315 307.7637 052.1684 14.77036357028673
FO-69
1 37227U 0 11201.38908846 .00000172 00000-0 32619-4 0 00858
2 37227 071.9707 326.0545 0018107 223.3313 136.6437 14.76612984014225
NANOSALD
1 37361U 0 11195.47230963 .00216964 00000-0 13795-1 0 02794
2 37361 071.9555 331.2023 0036880 092.3693 268.2993 15.07133433026224
FO-70
1 37380U 0 11201.40801937 .00000176 00000-0 33287-4 0 02213
2 37380 071.9737 326.1604 0018643 220.6063 139.3707 14.76378394035769
NOAA-10
1 16969U 86073A 11201.71481230 -.00000116 00000-0 -29316-4 0 05728
2 16969 098.6166 231.0447 0012943 124.9498 235.2891 14.27468629292435
NOAA-11
1 19531U 88089A 11201.86086424 .00000287 00000-0 17079-3 0 05748
2 19531 098.7528 288.6878 0011950 091.7888 268.4656 14.14921347177518
NOAA-12
1 21263U 91032A 11201.98338509 .00000060 00000-0 44103-4 0 00835
2 21263 098.7504 219.7681 0013421 087.7774 272.4943 14.25725985049220
MET-3/5
1 21655U 91056A 11201.86395526 .00000051 00000-0 10000-3 0 01654
2 21655 082.5562 026.9744 0014803 074.1669 286.1124 13.17031128958159
MET-2/21
1 22782U 93055A 11202.82194127 .00000028 00000-0 11805-4 0 1545
2 22782 082.5500 295.4015 0022612 006.1404 354.0043 13.83661115903340
OKEAN-4
1 23317U 94066A 11202.57308645 .00000454 00000-0 52547-4 0 6161
2 23317 082.5405 341.0252 0022543 010.2986 349.8683 14.83109025905649
NOAA-14
1 23455U 94089A 11201.86356848 -.00000034 00000-0 55595-5 0 05675
2 23455 098.8525 284.1649 0009161 179.3184 180.8002 14.13824976853833
NOAA-15
1 25338U 98030A 11201.79989992 .00000012 00000-0 23779-4 0 08903
2 25338 098.6568 187.4849 0010762 000.8238 359.2975 14.24932943685519
RESURS
1 25394U 98043A 11202.88280010 -.00000006 00000-0 14911-4 0 8491
2 25394 098.3018 203.9963 0002023 102.4038 257.7368 14.24235547677242
FENGYUN1
1 25730U 99025A 11202.90430044 .00000747 00000-0 45774-3 0 3781
2 25730 098.8185 163.3377 0022004 214.8675 145.1054 14.08698450627953
OKEAN-0
1 25860U 99039A 11201.97244273 .00000140 00000-0 28867-4 0 03842
2 25860 097.8873 167.4927 0000556 084.1863 275.9406 14.73805730645632
NOAA-16
1 26536U 00055A 11201.72075982 .00000122 00000-0 90876-4 0 03721
2 26536 099.1379 232.9415 0009700 300.5636 059.4581 14.12631807558099
NOAA-17
1 27453U 02032A 11201.75606046 .00000029 00000-0 30200-4 0 03609
2 27453 098.3769 239.9232 0012561 054.3413 305.8918 14.24293127471438
NOAA-18
1 28654U 05018A 11201.77109007 .00000426 00000-0 25934-3 0 08408
2 28654 098.9982 153.0043 0014567 014.1366 346.0205 14.11495646317666
NOAA-19
1 33591U 09005A 11201.77571193 -.00000063 00000-0 -10470-4 0 00314
2 33591 098.8281 141.3680 0013131 240.4688 119.5200 14.11184022126127
HUBBLE
1 20580U 90037B 11201.28828586 .00000600 00000-0 32644-4 0 8017
2 20580 028.4691 160.2129 0003585 116.6907 243.4152 15.01425223964633
ISS
1 25544U 98067A 11202.87696503 .00048952 00000-0 59157-3 0 7570
2 25544 051.6422 346.0977 0011648 349.5486 147.5303 15.60142338726323
CO-58
1 28895U 05043F 11201.64414643 .00000288 00000-0 69046-4 0 9279
2 28895 097.9609 076.7323 0018920 114.4801 245.8390 14.60134326305123
FALCON
1 30776U 07006E 11201.94907914 .00001228 00000-0 88310-4 0 01487
2 30776 035.4325 141.6701 0001797 358.9499 001.1224 15.04755276240130
MAST
1 31126U 07012K 11202.58742182 .00000330 00000-0 84163-4 0 2148
2 31126 097.8929 227.8674 0095518 064.0390 297.0602 14.53773879226083
CAPE1
1 31130U 07012P 11201.64122139 .00000446 00000-0 11231-3 0 02292
2 31130 097.8976 223.6916 0103541 077.5392 283.7399 14.52424224225495
COMPASS
1 32787U 08021E 11202.16130385 .00001095 00000-0 14260-3 0 432
2 32787 097.8452 265.3434 0016829 066.6393 293.6575 14.82502257174599
AAUSAT2
1 32788U 08021F 11201.71576226 .00000178 00000-0 28610-4 0 00358
2 32788 097.8463 265.1413 0016675 068.4797 291.8162 14.82687479174541
